Weather in Uglovoe

Russia / Republic of Crimea     44°49′14″N   33°36′23″E
temp.,
°C
wind,
m/s
gust,
m/s
humid.,
%
clouds,
%
prec.,
mm/h
press.,
hPa
HPBL,
m
27 february, sat
sat2700:00+8ssw69860 0.0 1023371
03:00+8ssw69850 0.0 1022374
06:00+8ssw68850 0.0 1020352
09:00+9ssw68840 0.0 1020385
12:00+9sw67820 0.0 1019360
15:00+9sw56850 0.0 1018276
18:00+9wsw23901 0.0 1017116
21:00+9n798829 0.1 1018515
28 february, sun
sun2800:00+7n8988100 0.6 1019629
03:00+6n9975100 0.8 1020912
06:00+6n787794 0.1 1020922
09:00+6nnw787597 0.4 1021973
12:00+5n887897 0.4 1022823
15:00+6nnw787092 0.5 10221055
18:00+6nnw8875100 0.3 1023998
21:00+6nnw7772100 0.5 1024940
1 march, mon
mon100:00+5nnw6674100 0.3 1025817
03:00+4nnw4582100 0.6 1025566
06:00+3n3491100 0.4 1025382
09:00+3ne3483100 0.7 1026510
12:00+4n336662 0.0 1027722
15:00+5nnw446431 0.0 1027829
18:00+5nnw336426 0.0 1027762
21:00+5ne236053 0.1 1029835
2 march, tue
tue200:00+5ne346571 0.1 1030599
03:00+4ne347251 0.1 1030403
06:00+3ene23730 0.0 1030308
09:00+3ne22710 0.0 1031320
12:00+4nnw33690 0.0 1031567
15:00+5wnw44701 0.0 1030702
18:00+5wnw557010 0.0 1028811
21:00+6wnw667345 0.0 1027843
3 march, wed
wed300:00+7w6779100 0.0 1026731
03:00+8wnw788099 0.0 1025799
06:00+7nnw448357 0.1 1025361
09:00+6nne458328 0.1 1026363
12:00+6n56760 0.0 1027609
15:00+8nnw67620 0.0 10271046
18:00+8nnw77580 0.0 1028904
21:00+7n55560 0.0 1029756